Red Bluff, CA

9:22 PM PST on December 07, 2019 (GMT -0800)
Red Bluff Municipal

Weather History for KRBL - November, 2019

Change the Weather History Date:

Wednesday, November 20, 2019

  Actual Average Record
Temperature  
Mean Temperature 62 °F -  
Max Temperature 68 °F 59 °F 79 °F (2002)
Min Temperature 57 °F 39 °F 26 °F (1977)
Degree Days  
Heating Degree Days 2    
Growing Degree Days 12 (Base 50)    
Moisture  
Dew Point 28 °F    
Average Humidity 28    
Maximum Humidity 41    
Minimum Humidity 17    
Precipitation  
Precipitation 0.00 in - - ()
Sea Level Pressure  
Sea Level Pressure 29.66 in    
Wind  
Wind Speed 19 mph ()    
Max Wind Speed 29 mph    
Max Gust Speed 41 mph    
Visibility 10.0 miles    
Events      
Averages and records for this station are not official NWS values.
T = Trace of Precipitation, MM = Missing Value Source: Averaged Metar Reports

Daily Weather History Graph

Daily Weather History Graph

Search for Another Location

Airport or City:

Astronomy

Nov. 20, 2019 Rise Set
Actual Time 7:00 AM PST 4:48 PM PST
Civil Twilight 6:30 AM PST 5:18 PM PST
Nautical Twilight 5:57 AM PST 5:51 PM PST
Astronomical Twilight 5:25 AM PST 6:23 PM PST
Moon No Moon Rise 1:48 PM PST (11/20)
Length of Visible Light 10h 47m
Length of Day
9h 48m
Last Quarter, 39% of the Moon is Illuminated
Nov 20
Last Quarter
Nov 26
New
Dec 3
First Quarter
Dec 11
Full
Dec 18
Last Quarter

Hourly Weather History & Observations

Time (PST) Temp. Dew Point Humidity Pressure Visibility Wind Dir Wind Speed Gust Speed Precip Events Conditions
12:54 AM 59.0 °F 35.1 °F 41% 29.65 in 10.0 mi NNW 24.2 mph 34.5 mph N/A   Clear
1:54 AM 59.0 °F 34.0 °F 39% 29.66 in 10.0 mi NNW 20.7 mph 31.1 mph N/A   Clear
2:54 AM 59.0 °F 33.1 °F 38% 29.66 in 10.0 mi NNW 17.3 mph 27.6 mph N/A   Clear
3:54 AM 59.0 °F 32.0 °F 36% 29.68 in 10.0 mi NNW 19.6 mph 32.2 mph N/A   Clear
4:54 AM 57.9 °F 32.0 °F 37% 29.69 in 10.0 mi NNW 20.7 mph 25.3 mph N/A   Clear
5:54 AM 57.0 °F 30.9 °F 37% 29.69 in 10.0 mi NW 11.5 mph 23.0 mph N/A   Clear
6:54 AM 57.0 °F 30.0 °F 36% 29.70 in 10.0 mi NNW 15.0 mph 23.0 mph N/A   Clear
8:54 AM 63.0 °F 27.0 °F 26% 29.70 in 10.0 mi North 23.0 mph 32.2 mph N/A   Clear
9:54 AM 64.9 °F 27.0 °F 24% 29.68 in 10.0 mi North 23.0 mph 33.4 mph N/A   Clear
10:54 AM 64.9 °F 27.0 °F 24% 29.68 in 10.0 mi North 21.9 mph 36.8 mph N/A   Clear
11:54 AM 66.0 °F 25.0 °F 21% 29.65 in 10.0 mi North 27.6 mph 38.0 mph N/A   Clear
12:54 PM 66.9 °F 25.0 °F 21% 29.61 in 10.0 mi North 27.6 mph 35.7 mph N/A   Clear
1:54 PM 68.0 °F 23.0 °F 18% 29.60 in 10.0 mi North 27.6 mph 36.8 mph N/A   Clear
2:54 PM 68.0 °F 21.9 °F 17% 29.59 in 10.0 mi North 28.8 mph 41.4 mph N/A   Clear
3:54 PM 66.0 °F 23.0 °F 20% 29.60 in 10.0 mi North 25.3 mph 36.8 mph N/A   Clear
4:54 PM 64.0 °F 25.0 °F 23% 29.62 in 10.0 mi North 19.6 mph 32.2 mph N/A   Clear
5:54 PM 62.1 °F 26.1 °F 25% 29.63 in 10.0 mi North 23.0 mph 34.5 mph N/A   Clear
6:54 PM 61.0 °F 26.1 °F 26% 29.65 in 10.0 mi North 24.2 mph 36.8 mph N/A   Clear
7:54 PM 61.0 °F 26.1 °F 26% 29.67 in 10.0 mi North 17.3 mph 32.2 mph N/A   Clear
8:54 PM 60.1 °F 26.1 °F 27% 29.69 in 10.0 mi North 16.1 mph - N/A   Clear
9:54 PM 59.0 °F 27.0 °F 29% 29.71 in 10.0 mi NNW 12.7 mph - N/A   Clear
10:54 PM 57.9 °F 27.0 °F 31% 29.72 in 10.0 mi North 16.1 mph 23.0 mph N/A   Clear
11:54 PM 57.9 °F 28.0 °F 32% 29.74 in 10.0 mi North 16.1 mph 24.2 mph N/A   Clear